Regional Weather Roundup
Issued by NWS

Home | Current Version | Previous Version | Text Only | Print | Product List | Glossary On
Versions: 1 2 3 4 5 6 7 8 9 10 11 12 13 14 15 16 17 18 19 20 21 22 23 24 25 26 27 28 29 30 31 32 33 34 35 36 37 38 39 40 41 42 43 44 45 46 47 48 49 50
000
ASUS43 KMPX 231110
RWRMN
WEATHER ROUNDUP FOR MINNESOTA
NATIONAL WEATHER SERVICE TWIN CITIES/CHANHASSEN MN
600 AM CDT SUN JUL 23 2017


NOTE: "FAIR" INDICATES FEW OR NO CLOUDS BELOW 12,000 FEET WITH NO
SIGNIFICANT WEATHER AND/OR OBSTRUCTIONS TO VISIBILITY. N/A MEANS
CURRENT SKY AND/OR WEATHER CONDITIONS ARE NOT AVAILABLE.

MNZ060>063-068>070-231200-
   Twin Cities Metro

CITY           SKY/WX    TMP DP  RH WIND       PRES   REMARKS
TWIN CITIES    MOCLDY    70  55  59 NW9       29.85S
ST PAUL        PTCLDY    67  58  72 NW6       29.85R
CRYSTAL        MOCLDY    67  54  63 NW8       29.85R
BLAINE         PTCLDY    68  57  68 NW7       29.86R
LAKEVILLE      MOCLDY    66  57  72 NW7       29.86R
EDEN PRAIRIE   MOCLDY    70  57  63 NW6       29.85R
SOUTH ST PAUL  PTCLDY    70  55  59 NW6       29.85R
LAKE ELMO      MOCLDY    66  57  72 NW5       29.86R
$$
MNZ001>005-007-008-013>017-022>024-027-028-231200-
   Northwest Minnesota

CITY           SKY/WX    TMP DP  RH WIND       PRES   REMARKS
BEMIDJI        CLOUDY    60  58  92 NW10      29.90S
HALLOCK        CLEAR     57  57 100 N6        29.95R
ROSEAU         CLOUDY    63  57  82 N3        29.93R
WARROAD        CLOUDY    63  57  82 N9        29.93R
THIEF RVR FALL CLOUDY    61  59  93 NW9       29.95R
CROOKSTON      CLOUDY    59  57  94 N5        29.95R
DETROIT LAKES  CLOUDY    59  57  94 NW9       29.95R
MOORHEAD       CLOUDY    61  57  88 NW7       29.95R
PARK RAPIDS    CLOUDY    62  58  86 NW9       29.90S
MAHNOMEN       CLOUDY    60  58  94 N5        29.93R
$$
MNZ006-009>011-018-025>026-231200-
   North Central Minnesota

CITY           SKY/WX    TMP DP  RH WIND       PRES   REMARKS
BAUDETTE       MOCLDY    60  59  96 N7        29.91R
FLAG ISLAND    PTCLDY    64  61  88 NE7       29.92R
INTL FALLS     CLOUDY    60  57  89 NE7       29.90R
WASKISH        CLOUDY    61  57  88 N5        29.91R
BIG FORK       CLOUDY    59  57  94 CALM      29.88R
LONGVILLE      MOCLDY    63  59  88 NW5       29.88R
GRAND RAPIDS   MOCLDY    60  58  92 NW7       29.89R
CRANE LAKE     CLOUDY    57  57 100 NE3       29.89R
ORR            CLOUDY    59  55  88 CALM      29.86R
COOK           MOCLDY    57  57 100 CALM      29.87S
WALKER         CLOUDY    59  58  94 NW6       29.89R
$$
MNZ012-019>021-037-231200-
   Northeast Minnesota

CITY           SKY/WX    TMP DP  RH WIND       PRES   REMARKS
DULUTH         CLOUDY    54  54 100 E3        29.85R
ELY            CLOUDY    59  57  94 CALM      29.87R
HIBBING        CLOUDY    58  58 100 NW6       29.87R
EVELETH        MOCLDY    60  60  99 N3        29.87R
DULUTH HARBOR  CLOUDY    57  55  94 NE9       29.87R
TWO HARBORS    CLOUDY    57  54  88 CALM      29.85R HAZE
SILVER BAY     CLOUDY    57  55  94 NE3       29.85R
GRAND MARAIS     N/A     56  55  97 CALM      29.85R
G MARAIS ARPRT CLOUDY    55  52  88 N5        29.88R FOG
$$
MNZ029>031-032-039>041-046>048-054>057-064-231200-
   West Central Minnesota

CITY           SKY/WX    TMP DP  RH WIND       PRES   REMARKS
FERGUS FALLS   CLOUDY    61  61 100 NW8       29.94R
WHEATON        CLEAR     61  57  88 NW8       29.96R
MORRIS         CLEAR     61  57  88 NW7       29.92S
ALEXANDRIA     CLEAR     61  59  93 NW8       29.93R
ELBOW LAKE     FAIR      60  59  97 NW9       29.93R
WADENA         CLOUDY    61  57  88 NW6       29.91R
GLENWOOD       CLEAR     61  57  88 NW9       29.92R
APPLETON       CLEAR     63  57  82 NW3       29.93R
BENSON         CLEAR     61  57  88 N7        29.93S
ORTONVILLE     CLEAR     64  57  77 N9        29.94R
MADISON        CLEAR     63  63 100 W7        29.94R
WILLMAR        FAIR      63  59  88 W5        29.93R
$$
MNZ033>034-036-042>043-049>051-058-059-231200-
   Central Minnesota

CITY           SKY/WX    TMP DP  RH WIND       PRES   REMARKS
ST CLOUD       CLEAR     60  57  89 NW3       29.88R
SAUK CENTRE    FAIR      58  56  94 CALM      29.90S
PAYNESVILLE    CLEAR     57  55  95 CALM      29.91R
AITKIN         CLOUDY    59  55  88 CALM      29.86R
PINE RIVER     CLOUDY    61  57  88 CALM      29.92R
BRAINERD       CLOUDY    63  57  81 NW6       29.88R
STAPLES        CLOUDY    61  57  88 NW8       29.90R
LONG PRAIRIE   MOCLDY    59  55  88 W6        29.90S
LITTLE FALLS   MOCLDY    59  54  82 W3        29.89R
LITCHFIELD     CLEAR     64  59  82 CALM      29.90S
BUFFALO        CLEAR     64  55  74 NW5       29.89R
MAPLE LAKE     CLEAR     64  58  82 NW6       29.89S
HUTCHINSON     CLEAR     65  59  82 NW7       29.90R
$$
MNZ037-044-045-052-053-231200-
   East Central Minnesota

CITY           SKY/WX    TMP DP  RH WIND       PRES   REMARKS
PRINCETON      CLEAR     59  55  88 CALM      29.87S
MORA           CLEAR     57  54  88 W5        29.88R
CAMBRIDGE      CLEAR     63  54  72 W5        29.85R
RUSH CITY      PTCLDY    59  56  89 CALM      29.86R
MOOSE LAKE     CLOUDY    59  55  88 CALM      29.84R
HINCKLEY       FAIR      59  57  94 CALM      29.85R
CLOQUET        MOCLDY    55  54  94 NW5       29.86R
MCGREGOR       PTCLDY    59  55  88 NW3       29.87S
$$
MNZ071>073-080-081-089-090-097-098-231200-
   Southwest Minnesota

CITY           SKY/WX    TMP DP  RH WIND       PRES   REMARKS
MONTEVIDEO     CLEAR     61  54  77 NW3       29.93R
GRANITE FALLS  CLEAR     61  59  92 W6        29.94R
CANBY          CLEAR     62  58  89 CALM      29.95S
MARSHALL       CLEAR     61  59  93 W8        29.95R
REDWOOD FALLS  CLEAR     63  59  87 W9        29.91R
OLIVIA         CLEAR     61  57  88 NW7       29.91R
PIPESTONE      CLEAR     64  57  77 N5        29.97R
WINDOM         CLEAR     64  59  82 NW7       29.93R
WORTHINGTON    CLEAR     62  58  86 NW8       29.95R
JACKSON        CLEAR     63  59  88 NW7       29.92S
SLAYTON        HVY RAIN  61  57  85 NW7       29.96R
$$
MNZ065>067-074>077-082>085-091>093-231200-
   South Central Minnesota

CITY           SKY/WX    TMP DP  RH WIND       PRES   REMARKS
MANKATO        CLEAR     65  62  90 N6        29.88R
NEW ULM        PTCLDY    63  61  94 NW7       29.89R
ST JAMES       PTCLDY    64  63  94 W7        29.91R
FAIRMONT       CLEAR     66  63  90 NW9       29.89R
GLENCOE        PTCLDY    65  62  88 NW6       29.88R
FARIBAULT      MOCLDY    66  61  82 N3        29.87R
OWATONNA       MOCLDY    64  63  94 CALM      29.87R FOG
WASECA         PTCLDY    63  59  88 N3        29.88R
ALBERT LEA     CLEAR     66  66 100 CALM      29.86F FOG
$$
MNZ078>079-086>088-094>096-231200-
   Southeast Minnesota

CITY           SKY/WX    TMP DP  RH WIND       PRES   REMARKS
ROCHESTER      PTCLDY    64  63  96 NW7       29.86S
RED WING       MOCLDY    66  63  88 CALM      29.83S
STANTON        MOCLDY    64  62  92 CALM      29.85R
DODGE CENTER   PTCLDY    66  63  88 NW3       29.86F
WINONA         CLOUDY    64  63  94 CALM      29.83R FOG
AUSTIN         CLEAR     64  63  94 CALM      29.86S
PRESTON        MOCLDY    65  62  90 CALM      29.87R
$$
ABBREVIATIONS USED IN REMARKS
   TC - TEMPERATURES IN CELSIUS
  WCI - WIND CHILL INDEX
   HX - HEAT INDEX
  VSB - VISIBILITY
$$




USA.gov is the U.S. government's official web portal to all federal, state and local government web resources and services.